EW8570 Weather Reports


time (UTC)temp
C
wind
direction
speed
KPH
gust
KPH
rain 1hr
cm
rain 24hr
cm
rain mn
cm
humidity
%
barometer
mb
20260906104200 19 252 0.0 0.0 0.00 0.03 0.00 89 1012.4
20260906103657 19 252 0.0 0.0 0.00 0.05 0.00 89 1012.3
20260906103157 19 255 0.0 0.0 0.00 0.05 0.00 89 1012.3
20260906102652 19 255 0.0 0.0 0.00 0.05 0.00 89 1012.2
20260906102159 19 255 0.0 0.0 0.00 0.05 0.00 89 1012.2
20260906101651 19 240 0.0 0.0 0.00 0.05 0.00 89 1012.2
20260906101156 19 281 0.0 0.0 0.00 0.05 0.00 89 1012.1
20260906100651 19 281 0.0 0.0 0.00 0.05 0.00 89 1012.0
20260906100156 19 281 0.0 0.0 0.00 0.05 0.00 89 1012.0
20260906095649 19 153 0.0 0.0 0.00 0.05 0.00 89 1011.8
20260906095446 19 132 0.0 0.0 0.00 0.05 0.00 88 1011.5
20260906095214 19 153 0.0 0.0 0.00 0.05 0.00 88 1011.7
20260906094521 20 45 0.0 1.6 0.00 0.05 0.00 88 1011.2
20260906094448 20 0 0.0 4.8 0.00 0.05 0.00 88 1011.4
20260906094415 20 0 1.6 4.8 0.00 0.05 0.00 88 1011.3
20260906094208 19 355 0.0 1.6 0.00 0.05 0.00 89 1011.4
20260906093741 19 355 0.0 1.6 0.00 0.05 0.00 88 1011.4
20260906093414 20 204 0.0 3.2 0.00 0.05 0.00 88 1011.3
20260906093204 19 355 0.0 3.2 0.00 0.05 0.00 88 1011.4
20260906092736 19 355 0.0 3.2 0.00 0.05 0.00 88 1011.3
20260906092306 19 303 1.6 3.2 0.00 0.05 0.00 89 1011.4
20260906091718 19 262 1.6 4.8 0.00 0.05 0.00 89 1011.4
20260906091245 19 262 0.0 4.8 0.00 0.05 0.00 88 1011.5
20260906091057 19 45 0.0 3.2 0.00 0.05 0.00 88 1011.2
20260906090701 19 204 0.0 1.6 0.00 0.05 0.00 88 1011.4
20260906090231 19 204 0.0 1.6 0.00 0.05 0.00 88 1011.3
20260906085233 20 204 1.6 4.8 0.00 0.05 0.00 88 1011.4
20260906084803 20 204 3.2 4.8 0.00 0.05 0.00 88 1011.4
20260906084336 20 205 1.6 4.8 0.00 0.05 0.00 88 1011.4
20260906082801 19 28 0.0 3.2 0.00 0.05 0.00 88 1011.2
20260906081701 20 45 0.0 3.2 0.00 0.05 0.00 88 1011.1
20260906080642 20 45 0.0 3.2 0.00 0.05 0.00 88 1011.3
20260906080133 20 45 1.6 4.8 0.00 0.05 0.00 88 1011.4
20260906075639 20 355 1.6 4.8 0.00 0.05 0.00 88 1011.5
20260906075139 20 342 1.6 3.2 0.00 0.05 0.00 88 1011.5
20260906074643 20 308 0.0 1.6 0.00 0.05 0.00 88 1011.4
20260906074139 20 308 0.0 3.2 0.00 0.05 0.00 88 1011.4
20260906073634 20 308 1.6 3.2 0.00 0.05 0.00 88 1011.2
20260906073559 20 259 0.0 3.2 0.00 0.05 0.00 87 1011.4
20260906073204 20 260 1.6 3.2 0.00 0.05 0.00 88 1011.4
20260906072130 20 168 0.0 0.0 0.00 0.05 0.00 87 1011.3
20260906071635 20 168 0.0 0.0 0.00 0.05 0.00 87 1011.4
20260906071134 20 168 0.0 0.0 0.00 0.05 0.00 87 1011.3
20260906070646 20 168 0.0 0.0 0.00 0.05 0.00 87 1011.4
20260906070130 20 168 0.0 0.0 0.00 0.05 0.00 87 1011.5
20260906065739 21 308 0.0 0.0 0.00 0.05 0.00 86 1011.9
20260906065638 20 168 0.0 0.0 0.00 0.05 0.00 87 1011.6
20260906065210 20 168 0.0 0.0 0.00 0.05 0.00 87 1011.6
20260906064914 20 168 0.0 0.0 0.00 0.05 0.00 87 1011.7
20260906064841 20 168 0.0 0.0 0.00 0.05 0.00 87 1011.8
20260906064642 20 168 0.0 0.0 0.00 0.05 0.00 87 1011.7
20260906064207 20 168 0.0 0.0 0.00 0.05 0.00 87 1011.7
20260906063216 20 168 0.0 0.0 0.00 0.05 0.00 87 1011.7
20260906062646 20 168 0.0 0.0 0.00 0.05 0.00 87 1011.8
20260906061651 20 168 0.0 0.0 0.00 0.05 0.00 86 1011.8
20260906060607 21 308 0.0 0.0 0.00 0.05 0.00 86 1011.9
20260906060109 21 308 0.0 0.0 0.00 0.05 0.00 86 1011.9
20260906055551 21 308 0.0 0.0 0.00 0.05 0.00 86 1011.8
20260906055339 21 242 1.6 4.8 0.00 0.05 0.00 86 1011.9
20260906055113 21 308 0.0 0.0 0.00 0.05 0.00 86 1011.8
20260906054644 21 308 0.0 0.0 0.00 0.05 0.00 86 1011.9
20260906054101 21 242 0.0 0.0 0.00 0.05 0.00 86 1011.9
20260906053619 21 242 0.0 0.0 0.00 0.05 0.00 86 1011.9
20260906053048 21 242 0.0 3.2 0.00 0.05 0.00 86 1011.9
20260906052009 21 245 1.6 4.8 0.00 0.05 0.00 86 1012.0
20260906051514 21 258 3.2 6.4 0.00 0.05 0.00 86 1012.1
20260906051451 21 324 1.6 3.2 0.00 0.05 0.00 85 1012.0
20260906051028 21 248 1.6 6.4 0.00 0.05 0.00 86 1012.0
20260906050530 21 253 1.6 3.2 0.00 0.05 0.00 85 1012.0
20260906045442 21 89 1.6 9.7 0.00 0.05 0.00 85 1012.0
20260906045340 21 103 1.6 6.4 0.00 0.05 0.00 85 1011.9
20260906045006 21 89 1.6 9.7 0.00 0.05 0.00 85 1012.1
20260906044125 22 338 0.0 6.4 0.00 0.05 0.00 85 1012.0
20260906043925 22 83 3.2 8.0 0.00 0.05 0.00 84 1011.9
20260906043450 22 329 4.8 11.3 0.00 0.05 0.00 84 1011.8
20260906043008 22 296 3.2 11.3 0.00 0.05 0.00 84 1011.8
20260906042411 22 318 3.2 6.4 0.00 0.05 0.00 85 1011.9
20260906041927 22 340 1.6 6.4 0.00 0.05 0.00 85 1011.9
20260906040903 22 48 0.0 1.6 0.00 0.05 0.00 84 1012.0
20260906040734 22 48 0.0 0.0 0.00 0.05 0.05 84 1012.0
20260906040406 22 48 0.0 0.0 0.00 0.05 0.00 84 1012.0
20260906035332 22 48 0.0 0.0 0.00 0.05 0.05 84 1012.0
20260906035237 22 48 0.0 3.2 0.00 0.05 0.05 84 1012.0
20260906035230 22 346 0.0 1.6 0.00 0.05 0.05 84 1012.3
20260906035159 22 346 0.0 3.2 0.00 0.05 0.05 84 1012.2
20260906035131 22 317 1.6 3.2 0.00 0.05 0.05 84 1012.3
20260906034851 22 48 0.0 0.0 0.00 0.05 0.05 84 1012.1
20260906034301 22 340 1.6 4.8 0.00 0.05 0.05 84 1012.3
20260906033844 22 48 1.6 4.8 0.00 0.05 0.05 84 1012.0
20260906033403 22 340 1.6 4.8 0.00 0.05 0.05 84 1012.1
20260906032929 22 346 0.0 1.6 0.00 0.05 0.05 84 1012.1
20260906031343 22 346 1.6 3.2 0.00 0.05 0.05 84 1012.2
20260906025722 22 315 1.6 4.8 0.00 0.05 0.05 84 1012.3
20260906025218 22 277 0.0 3.2 0.00 0.05 0.05 84 1012.3
20260906024751 22 250 0.0 0.0 0.00 0.05 0.05 84 1012.2
20260906024714 22 250 0.0 1.6 0.00 0.05 0.05 84 1012.3
20260906024240 22 250 0.0 1.6 0.00 0.05 0.05 84 1012.2
20260906023312 22 250 1.6 4.8 0.00 0.05 0.05 84 1012.2
20260906023157 22 250 0.0 0.0 0.00 0.05 0.05 84 1012.1
20260906022724 22 250 0.0 1.6 0.00 0.05 0.05 84 1012.1
20260906021649 23 250 1.6 4.8 0.00 0.05 0.05 84 1012.1
20260906021147 23 241 0.0 3.2 0.00 0.05 0.05 84 1012.1
20260906020933 23 317 0.0 3.2 0.00 0.05 0.05 83 1012.0
20260906020928 23 324 0.0 3.2 0.00 0.05 0.05 83 1011.9
20260906020702 23 257 1.6 4.8 0.00 0.05 0.05 84 1012.1
20260906020239 23 257 1.6 4.8 0.00 0.05 0.05 84 1012.1
20260906015754 23 269 1.6 3.2 0.00 0.05 0.05 83 1012.0
20260906014550 23 61 0.0 1.6 0.00 0.05 0.05 83 1011.8
20260906014446 23 61 1.6 4.8 0.00 0.05 0.05 82 1011.7
20260906014211 23 324 0.0 3.2 0.00 0.05 0.05 83 1011.9
20260906013736 23 61 0.0 0.0 0.00 0.05 0.05 83 1011.8
20260906012720 23 61 0.0 3.2 0.00 0.05 0.05 83 1011.6
20260906011648 24 29 0.0 4.8 0.00 0.05 0.05 81 1011.6
20260906011139 24 273 0.0 4.8 0.00 0.05 0.05 81 1011.8
20260906010638 24 273 1.6 4.8 0.00 0.05 0.05 81 1011.7
20260906010137 24 262 3.2 4.8 0.00 0.05 0.05 81 1011.6
20260906005637 24 273 3.2 4.8 0.00 0.05 0.05 81 1011.4
20260906005140 24 263 1.6 4.8 0.00 0.05 0.05 80 1011.4
20260906004640 25 276 1.6 4.8 0.00 0.05 0.05 80 1011.3
20260906004138 25 252 1.6 3.2 0.00 0.05 0.05 79 1011.3
20260906003652 25 350 0.0 1.6 0.00 0.05 0.05 76 1011.1
20260906003129 26 350 0.0 1.6 0.00 0.05 0.05 74 1011.1
20260906003027 26 350 0.0 3.2 0.00 0.05 0.05 72 1011.0
20260906002703 26 350 0.0 3.2 0.00 0.05 0.05 73 1011.0
20260906001629 27 350 0.0 1.6 0.00 0.05 0.05 71 1010.8
20260906001131 27 350 0.0 1.6 0.00 0.05 0.05 70 1010.7
20260906000627 27 350 0.0 1.6 0.00 0.05 0.05 70 1010.7
20260906000134 27 350 0.0 3.2 0.00 0.05 0.05 69 1010.6
20260905235637 27 350 0.0 3.2 0.00 0.05 0.05 68 1010.5
20260905235511 28 319 1.6 6.4 0.00 0.05 0.05 67 1010.6
20260905235154 27 350 1.6 6.4 0.00 0.05 0.05 68 1010.6
20260905234725 27 355 3.2 6.4 0.00 0.05 0.05 68 1010.5
20260905234142 27 300 3.2 6.4 0.00 0.05 0.05 68 1010.5
20260905233701 28 336 3.2 6.4 0.00 0.05 0.05 67 1010.5
20260905233222 28 51 3.2 6.4 0.00 0.05 0.05 67 1010.5
20260905232726 28 289 3.2 6.4 0.00 0.05 0.05 66 1010.6
20260905232630 28 11 1.6 6.4 0.00 0.05 0.05 67 1010.5
20260905232150 28 0 1.6 4.8 0.00 0.05 0.05 67 1010.4
20260905231708 28 326 3.2 6.4 0.00 0.05 0.05 67 1010.3
20260905231236 28 304 3.2 6.4 0.00 0.05 0.05 67 1010.4
20260905230754 28 315 3.2 6.4 0.00 0.05 0.05 67 1010.6
20260905225123 28 298 3.2 9.7 0.00 0.05 0.05 66 1010.5
20260905224617 29 248 3.2 11.3 0.00 0.05 0.05 65 1010.5
20260905224121 29 289 3.2 11.3 0.00 0.05 0.05 65 1010.5
20260905223618 29 261 3.2 6.4 0.00 0.05 0.05 64 1010.5
20260905223119 29 277 1.6 6.4 0.00 0.05 0.05 64 1010.4
20260905222609 29 297 1.6 6.4 0.00 0.05 0.05 64 1010.5
20260905222101 29 253 3.2 9.7 0.00 0.05 0.05 63 1010.5
20260905221846 30 257 3.2 11.3 0.00 0.05 0.05 61 1010.6
20260905221737 30 269 3.2 9.7 0.00 0.05 0.05 61 1010.7
20260905221603 29 245 3.2 9.7 0.00 0.05 0.05 62 1010.5
20260905221528 30 296 3.2 8.0 0.00 0.05 0.05 59 1010.7
20260905221111 30 277 3.2 9.7 0.00 0.05 0.05 63 1010.7
20260905220639 30 271 3.2 9.7 0.00 0.05 0.05 63 1010.7
20260905220203 30 279 3.2 8.0 0.00 0.05 0.05 61 1010.6
20260905215734 30 290 3.2 9.7 0.00 0.05 0.05 61 1010.6
20260905214717 30 231 3.2 8.0 0.00 0.05 0.05 61 1010.7
20260905214248 30 304 3.2 8.0 0.00 0.05 0.05 61 1010.7
20260905213113 30 305 3.2 9.7 0.00 0.05 0.05 61 1010.7
20260905212629 30 303 3.2 11.3 0.00 0.05 0.05 61 1010.6
20260905212009 28 269 3.2 6.4 0.00 0.05 0.05 64 1010.8
20260905211933 29 195 3.2 6.4 0.00 0.05 0.05 63 1010.7
20260905211609 30 330 3.2 8.0 0.00 0.05 0.05 60 1010.6
20260905211134 30 266 3.2 9.7 0.00 0.05 0.05 61 1010.7
20260905210647 30 321 3.2 9.7 0.00 0.05 0.05 61 1010.6
20260905210108 29 322 3.2 6.4 0.00 0.05 0.05 62 1010.6
20260905205620 29 209 1.6 6.4 0.00 0.05 0.05 64 1010.5
20260905205139 29 244 1.6 6.4 0.00 0.05 0.05 64 1010.6
20260905204115 28 217 3.2 6.4 0.00 0.05 0.05 64 1010.6
20260905203021 28 195 3.2 6.4 0.00 0.05 0.05 66 1010.8
20260905202813 28 230 1.6 4.8 0.00 0.05 0.05 66 1010.7
20260905202530 28 228 3.2 6.4 0.00 0.05 0.05 66 1010.8
20260905202049 28 222 1.6 4.8 0.00 0.05 0.05 65 1010.8
20260905200958 28 223 1.6 6.4 0.00 0.08 0.05 66 1010.8
20260905200551 27 227 3.2 6.4 0.00 0.08 0.05 66 1010.3
20260905200451 28 220 1.6 6.4 0.00 0.08 0.05 65 1010.7
20260905200018 28 211 1.6 6.4 0.00 0.08 0.05 65 1010.6
20260905195541 28 224 0.0 6.4 0.00 0.08 0.05 67 1010.6
20260905195309 26 223 1.6 4.8 0.00 0.08 0.05 73 1009.8
20260905195239 26 211 1.6 3.2 0.00 0.08 0.05 75 1009.9
20260905195201 25 216 3.2 12.9 0.00 0.08 0.05 77 1010.7
20260905195110 25 271 4.8 12.9 0.03 0.08 0.05 77 1011.0
20260905194938 27 203 0.0 0.0 0.00 0.08 0.05 67 1010.5
20260905194923 25 279 6.4 12.9 0.03 0.08 0.05 78 1011.0
20260905194501 27 216 0.0 6.4 0.00 0.08 0.05 66 1010.5
20260905194019 27 211 1.6 6.4 0.00 0.08 0.05 66 1010.3
20260905193007 27 221 1.6 6.4 0.00 0.08 0.05 69 1010.2
20260905192528 27 215 1.6 4.8 0.00 0.08 0.05 67 1010.2
20260905192057 26 238 0.0 4.8 0.00 0.08 0.05 70 1010.3
20260905191619 26 230 1.6 4.8 0.00 0.08 0.05 71 1010.1
20260905190031 25 311 1.6 6.4 0.00 0.08 0.05 75 1010.1
20260905185555 25 31 3.2 8.0 0.00 0.08 0.05 76 1010.3
20260905183410 24 313 6.4 12.9 0.03 0.08 0.05 80 1011.2
20260905182910 24 278 4.8 12.9 0.03 0.08 0.05 82 1011.0
20260905182420 24 63 1.6 4.8 0.03 0.08 0.05 82 1009.5
20260905181916 24 48 1.6 4.8 0.03 0.08 0.05 80 1009.7
20260905181413 25 98 1.6 4.8 0.03 0.08 0.05 79 1010.2
20260905180909 25 103 1.6 6.4 0.03 0.08 0.05 80 1010.4
20260905180415 25 84 1.6 6.4 0.03 0.08 0.05 78 1011.1
20260905175905 26 178 0.0 3.2 0.03 0.08 0.05 74 1011.3
20260905175410 26 272 1.6 8.0 0.03 0.08 0.05 73 1011.8
20260905174904 26 260 1.6 8.0 0.03 0.08 0.05 71 1012.1
20260905174408 26 355 3.2 9.7 0.00 0.05 0.03 69 1012.3
20260905173907 27 14 4.8 12.9 0.00 0.05 0.03 67 1012.5
20260905173407 27 58 4.8 12.9 0.00 0.05 0.03 63 1012.5
20260905172908 27 355 6.4 16.1 0.00 0.05 0.03 63 1012.9
20260905172411 28 306 8.0 20.9 0.00 0.05 0.03 63 1013.0
20260905171904 28 307 6.4 20.9 0.00 0.05 0.03 63 1013.5
20260905171403 29 293 6.4 19.3 0.00 0.05 0.03 66 1013.6
20260905170902 29 5 11.3 22.5 0.00 0.05 0.03 63 1013.5
20260905170407 30 318 12.9 29.0 0.00 0.05 0.03 61 1013.3
20260905165901 31 17 9.7 29.0 0.00 0.05 0.03 60 1013.5
20260905165401 32 351 6.4 17.7 0.00 0.05 0.03 61 1013.3
20260905164907 32 0 4.8 14.5 0.00 0.05 0.03 63 1012.9
20260905164358 32 350 4.8 14.5 0.00 0.05 0.03 61 1012.9
20260905163907 33 319 4.8 16.1 0.00 0.05 0.03 62 1012.9
20260905163357 33 309 4.8 16.1 0.00 0.05 0.03 62 1012.8
20260905162901 33 337 6.4 16.1 0.00 0.05 0.03 61 1012.9
20260905162403 33 242 4.8 16.1 0.00 0.05 0.03 60 1012.7
20260905161907 33 298 3.2 12.9 0.00 0.05 0.03 60 1012.6
20260905161359 32 275 3.2 11.3 0.00 0.05 0.03 63 1012.5
20260905160855 32 313 3.2 9.7 0.00 0.05 0.03 61 1012.7
20260905160359 32 16 4.8 12.9 0.00 0.05 0.03 62 1012.8
20260905155854 32 33 4.8 12.9 0.00 0.05 0.03 60 1012.9
20260905155433 32 350 3.2 9.7 0.00 0.05 0.03 63 1012.9
20260905155356 32 347 4.8 12.9 0.00 0.05 0.03 60 1012.7
20260905154906 32 5 3.2 12.9 0.00 0.05 0.03 62 1012.7
20260905154431 32 351 1.6 6.4 0.00 0.05 0.03 63 1012.8
20260905153349 31 219 4.8 9.7 0.00 0.05 0.03 62 1012.9
20260905152848 31 22 3.2 11.3 0.00 0.05 0.03 63 1013.0
20260905152353 31 101 1.6 11.3 0.00 0.05 0.03 65 1012.9
20260905151846 31 87 1.6 3.2 0.00 0.05 0.03 70 1012.9
20260905151729 31 112 3.2 8.0 0.00 0.05 0.03 69 1012.6
20260905151653 28 173 1.6 4.8 0.00 0.05 0.03 80 1012.7
20260905151357 31 355 1.6 9.7 0.00 0.05 0.03 72 1012.8
20260905150926 31 339 1.6 9.7 0.00 0.05 0.03 69 1012.7
20260905150307 28 209 1.6 6.4 0.00 0.05 0.03 80 1012.7
20260905150252 27 188 3.2 8.0 0.00 0.05 0.03 81 1012.7
20260905145858 30 179 3.2 9.7 0.00 0.05 0.03 71 1012.6
20260905145420 30 198 1.6 9.7 0.00 0.05 0.03 75 1012.7
20260905144948 29 170 1.6 8.0 0.00 0.05 0.03 78 1012.6
20260905143415 28 192 3.2 6.4 0.00 0.05 0.03 81 1012.6
20260905142338 27 214 3.2 8.0 0.00 0.05 0.03 82 1012.7
20260905141835 27 182 3.2 8.0 0.00 0.05 0.03 83 1012.7
20260905141339 26 180 3.2 8.0 0.00 0.05 0.03 84 1012.7
20260905140834 26 167 1.6 8.0 0.00 0.05 0.03 85 1012.6
20260905140458 24 197 0.0 6.4 0.00 0.05 0.03 87 1012.6
20260905140335 25 174 1.6 6.4 0.00 0.05 0.03 86 1012.6
20260905135858 25 161 0.0 6.4 0.00 0.05 0.03 87 1012.6
20260905134824 24 222 1.6 8.0 0.00 0.05 0.03 87 1012.6
20260905134320 24 163 1.6 8.0 0.00 0.05 0.03 88 1012.5
20260905133840 24 173 3.2 8.0 0.00 0.05 0.03 89 1012.6
20260905133527 22 169 0.0 3.2 0.00 0.05 0.03 91 1012.7
20260905133326 23 161 3.2 8.0 0.00 0.05 0.03 90 1012.7
20260905132851 23 200 1.6 8.0 0.00 0.05 0.03 91 1012.7
20260905132410 23 163 1.6 8.0 0.00 0.05 0.03 91 1012.7
20260905131836 22 156 0.0 4.8 0.00 0.05 0.03 92 1012.7
20260905131345 22 155 0.0 3.2 0.00 0.05 0.03 91 1012.8
20260905130318 22 34 0.0 1.6 0.00 0.05 0.03 91 1012.8
20260905125821 21 34 0.0 4.8 0.00 0.05 0.03 91 1012.9
20260905125317 21 34 1.6 4.8 0.00 0.05 0.03 91 1013.0
20260905124816 21 5 1.6 4.8 0.00 0.05 0.03 91 1013.0
20260905124315 21 30 1.6 4.8 0.00 0.05 0.03 91 1013.0
20260905123814 21 81 1.6 4.8 0.00 0.05 0.03 91 1013.0
20260905123310 21 50 1.6 4.8 0.00 0.05 0.03 91 1013.0
20260905122928 21 87 0.0 0.0 0.00 0.05 0.03 91 1013.2
20260905122810 21 34 0.0 4.8 0.00 0.05 0.03 91 1013.1
20260905122339 21 76 0.0 0.0 0.00 0.05 0.03 91 1013.1
20260905121253 21 150 0.0 0.0 0.00 0.05 0.03 91 1013.1
20260905120745 20 150 0.0 0.0 0.00 0.05 0.03 91 1013.1
20260905120241 20 150 0.0 0.0 0.00 0.05 0.03 91 1013.1
20260905120226 20 239 0.0 1.6 0.00 0.05 0.03 90 1012.8
20260905115807 20 81 0.0 0.0 0.00 0.05 0.03 90 1013.0
20260905115227 20 18 0.0 0.0 0.00 0.05 0.03 90 1012.9
20260905114749 20 239 0.0 1.6 0.00 0.05 0.03 90 1012.9
20260905113718 20 168 0.0 0.0 0.03 0.05 0.03 90 1012.8
20260905113201 19 188 0.0 0.0 0.03 0.05 0.03 90 1012.7
20260905112654 19 120 0.0 0.0 0.03 0.05 0.03 89 1012.6
20260905112156 19 120 0.0 0.0 0.03 0.05 0.03 89 1012.6
20260905111647 19 120 0.0 0.0 0.03 0.05 0.03 89 1012.6
20260905111147 19 177 0.0 0.0 0.03 0.05 0.03 89 1012.5
20260905110644 19 177 0.0 0.0 0.03 0.05 0.03 89 1012.5
20260905110146 20 30 0.0 0.0 0.03 0.05 0.03 89 1012.5
20260905105648 20 265 0.0 0.0 0.03 0.05 0.03 89 1012.4
20260905105142 20 265 0.0 0.0 0.03 0.05 0.03 89 1012.4
20260905104645 20 22 0.0 0.0 0.03 0.05 0.03 89 1012.5